Regional Weather Roundup
Issued by NWS

Home | Current Version | Previous Version | Graphics & Text | Print | Product List | Glossary On
Versions: 1 2 3 4 5 6 7 8 9 10 11 12 13 14 15 16 17 18 19 20 21 22 23 24 25 26 27 28 29 30 31 32 33 34 35 36 37 38 39 40 41 42 43 44 45 46 47 48 49 50
000
ASUS43 KIND 211159
RWRIN

WEATHER ROUNDUP FOR INDIANA
NATIONAL WEATHER SERVICE INDIANAPOLIS IN
700 AM EST TUE FEB 21 2017

NOTE: "FAIR" INDICATES FEW OR NO CLOUDS BELOW 12,000 FEET WITH NO
SIGNIFICANT WEATHER AND/OR OBSTRUCTIONS TO VISIBILITY.

* - STATION DOES NOT REPORT WEATHER SUCH AS PRECIPITATION OR FOG.

+ - STATION NOT QUALITY CONTROLLED BY THE NATIONAL WEATHER SERVICE.
    USE DATA WITH CAUTION...ESPECIALLY DEWPOINT AND RELATIVE
    HUMIDITY OBSERVATIONS.

INZ001>003-010>013-019-020-211300-
NORTHWEST INDIANA

CITY           SKY/WX    TMP DP  RH WIND       PRES   REMARKS
GARY /AIRPORT/ LGT RAIN  55  48  76 S6        29.93F
KNOX *+        CLOUDY    54  30  40 S7        29.95S

$$

LMZ046-743>745-211300-
SOUTHERN LAKE MICHIGAN

STATION/POSITION TIME  TEMP    WIND        PRES    WAVE
                       AIR SEA DIR/SP/G            HT
                 (UTC) (F)     (DEG/KT/KT) (MB)    (FT)
BURNS HARBOR     1140   55     190/  9/ 11 1013.9F
MICHIGAN CITY    1130   56     200/  9/ 10   N/A

$$

INZ004-005-014>016-021>024-211300-
NORTH CENTRAL INDIANA

CITY           SKY/WX    TMP DP  RH WIND       PRES   REMARKS
ELKHART        CLOUDY    52  43  71 SW5       29.96
GOSHEN         CLOUDY    53  41  63 S7        29.96R
6HR MIN TEMP:  48; 6HR MAX TEMP:  53;

SOUTH BEND     CLOUDY    55  46  71 SW8       29.97R
6HR MIN TEMP:  51; 6HR MAX TEMP:  55; 6HR PCP: TRACE;

WARSAW +       CLOUDY    52  41  66 CALM      29.97R

$$

INZ006>009-017-018-025>027-211300-
NORTHEAST INDIANA

CITY           SKY/WX    TMP DP  RH WIND       PRES   REMARKS
ANGOLA *+      PTCLDY    45  39  81 S5        29.96F
FORT WAYNE     CLOUDY    48  41  76 S7        29.98R
6HR MIN TEMP:  44; 6HR MAX TEMP:  49;

KENDALLVILLE + CLOUDY    47  40  77 S7        29.97R

$$

INZ028-029-035-036-043>045-051>053-211300-
WEST CENTRAL INDIANA

CITY           SKY/WX    TMP DP  RH WIND       PRES   REMARKS
LAFAYETTE      CLOUDY    53  46  77 CALM      29.95S
6HR MIN TEMP:  52; 6HR MAX TEMP:  56;

TERRE HAUTE    MOCLDY    50  45  83 CALM      29.98R
6HR MIN TEMP:  48; 6HR MAX TEMP:  56;


$$

INZ030>032-037>040-046>048-054>057-064-065-211300-
CENTRAL INDIANA

CITY           SKY/WX    TMP DP  RH WIND       PRES   REMARKS
FRANKFORT +    MOCLDY    56  48  74 S6        29.99R
6HR MIN TEMP:  54; 6HR MAX TEMP:  56;

GREENWOOD *+   CLOUDY    53  46  76 SE3       29.99S
6HR MIN TEMP:  52; 6HR MAX TEMP:  55;

INDIANAPOLIS   MOCLDY    51  44  77 SE6       29.97F
6HR MIN TEMP:  51; 6HR MAX TEMP:  55;

-EAGLE CREEK   CLOUDY    53  44  71 SE5       29.97F
6HR MIN TEMP:  52; 6HR MAX TEMP:  57;

KOKOMO +       MOCLDY    51  45  79 S6        29.98S
6HR MIN TEMP:  50; 6HR MAX TEMP:  53;

MT COMFORT *+  CLOUDY    50  43  76 S5        29.99S
SHELBYVILLE    CLOUDY    52  42  69 SE5       29.98S
6HR MIN TEMP:  51; 6HR MAX TEMP:  56;


$$

INZ033-034-041-042-049-050-058-059-211300-
EAST CENTRAL INDIANA

CITY           SKY/WX    TMP DP  RH WIND       PRES   REMARKS
MUNCIE         CLOUDY    55  41  59 S7        29.98F
6HR MIN TEMP:  54; 6HR MAX TEMP:  57;


$$

INZ060-061-067>069-081>083-085>088-211300-
SOUTHWEST INDIANA

CITY           SKY/WX    TMP DP  RH WIND       PRES   REMARKS
EVANSVILLE     CLOUDY    53  46  77 CALM      29.97S
6HR MIN TEMP:  52; 6HR MAX TEMP:  58;

HUNTINGBURG *+ CLOUDY    57  46  67 SE5       29.99R
6HR MIN TEMP:  54; 6HR MAX TEMP:  59;


$$

INZ062-063-066-070>080-084-089>092-211300-
SOUTH CENTRAL AND SOUTHEAST INDIANA

CITY           SKY/WX    TMP DP  RH WIND       PRES   REMARKS
BLOOMINGTON    CLOUDY    52  43  71 SE5       29.98R
6HR MIN TEMP:  49; 6HR MAX TEMP:  57;

MADISON *+     PTCLDY    52  41  66 SE3       30.03R
SEYMOUR +      MOCLDY    50  43  76 SE5       30.00S

$$




USA.gov is the U.S. government's official web portal to all federal, state and local government web resources and services.